timestamp,surface_pressure_avg,surface_temp_avg,battery_voltage,lat,long
2019-12-28 00:09:01+00:00,341.5780000000001,2.14,12.73,47.84626,-54.09684
2019-12-28 00:19:01+00:00,339.5579,2.17,12.73,47.84626,-54.09684
2019-12-28 00:29:01+00:00,341.9479,2.19,12.73,47.84626,-54.09684
2019-12-28 00:39:01+00:00,345.5779,2.19,12.73,47.84626,-54.09684
2019-12-28 00:49:01+00:00,343.4430000000001,2.16,12.73,47.84626,-54.09684
2019-12-28 00:59:01+00:00,339.7263,2.12,12.73,47.84626,-54.09684
2019-12-28 01:09:01+00:00,340.7914,2.15,12.73,47.84626,-54.09684
2019-12-28 01:19:01+00:00,340.9279,2.17,12.73,47.84626,-54.09684
2019-12-28 01:29:01+00:00,337.7480000000001,2.16,12.73,47.84626,-54.09684
2019-12-28 01:39:01+00:00,335.418,2.17,12.73,47.84626,-54.09684
2019-12-28 01:49:01+00:00,334.4446,2.17,12.73,47.84626,-54.09684
2019-12-28 01:59:01+00:00,332.608,2.17,12.73,47.84626,-54.09684
2019-12-28 02:09:01+00:00,334.2479,2.17,12.73,47.84626,-54.09684
2019-12-28 02:19:01+00:00,333.2747,2.17,12.65,47.84626,-54.09684
2019-12-28 02:29:01+00:00,328.8063,2.15,12.65,47.84626,-54.09684
2019-12-28 02:39:01+00:00,326.1813,2.17,12.65,47.84626,-54.09684
2019-12-28 02:49:01+00:00,327.9563,2.18,12.65,47.84626,-54.09684
2019-12-28 02:59:01+00:00,319.4913,2.18,12.65,47.84626,-54.09684
2019-12-28 03:09:01+00:00,308.968,2.17,12.65,47.84626,-54.09684
2019-12-28 03:19:01+00:00,301.173,2.18,12.65,47.84626,-54.09684
2019-12-28 03:29:01+00:00,296.5098,2.19,12.65,47.84626,-54.09684
2019-12-28 03:39:01+00:00,284.6981,2.19,12.65,47.84626,-54.09684
2019-12-28 03:49:01+00:00,274.7314,2.16,12.65,47.84626,-54.09684
2019-12-28 03:59:01+00:00,269.4881,2.13,12.65,47.84626,-54.09684
2019-12-28 04:09:01+00:00,266.9897,2.15,12.65,47.84626,-54.09684
2019-12-28 04:19:01+00:00,258.2198,2.14,12.65,47.84626,-54.09684
2019-12-28 04:29:01+00:00,251.5381,2.14,12.65,47.84626,-54.09684
2019-12-28 04:39:01+00:00,246.1515,2.15,12.65,47.84626,-54.09684
2019-12-28 04:49:01+00:00,239.5064,2.14,12.65,47.84626,-54.09684
2019-12-28 04:59:01+00:00,230.2464,2.11,12.65,47.84626,-54.09684
2019-12-28 05:09:01+00:00,223.4147,2.1,12.65,47.84626,-54.09684
2019-12-28 05:19:01+00:00,213.2581,2.1,12.65,47.84626,-54.09684
2019-12-28 05:29:01+00:00,207.8564,2.1,12.65,47.84626,-54.09684
2019-12-28 05:39:01+00:00,207.3431,2.1,12.65,47.84626,-54.09684
2019-12-28 05:49:01+00:00,206.9064,2.1,12.65,47.84626,-54.09684
2019-12-28 05:59:01+00:00,200.6915,1.97,12.65,47.84626,-54.09684
2019-12-28 06:09:01+00:00,196.3614,1.7,12.65,47.84626,-54.09684
2019-12-28 06:19:01+00:00,196.6381,1.5,12.65,47.84626,-54.09684
2019-12-28 06:29:01+00:00,200.9448,1.4,12.65,47.84626,-54.09684
2019-12-28 06:39:01+00:00,204.5131,1.3,12.65,47.84626,-54.09684
2019-12-28 06:49:01+00:00,200.4148,1.29,12.65,47.84626,-54.09684
2019-12-28 06:59:01+00:00,198.1098,1.24,12.65,47.84626,-54.09684
2019-12-28 07:09:01+00:00,200.5348,1.35,12.65,47.84626,-54.09684
2019-12-28 07:19:01+00:00,198.2048,1.45,12.65,47.84626,-54.09684
2019-12-28 07:29:01+00:00,201.1648,1.5,12.65,47.84626,-54.09684
2019-12-28 07:39:01+00:00,209.9198,1.6,12.65,47.84626,-54.09684
2019-12-28 07:49:01+00:00,214.5931,1.7,12.65,47.84626,-54.09684
2019-12-28 07:59:01+00:00,219.3948,1.79,12.65,47.84626,-54.09684
2019-12-28 08:09:01+00:00,225.5465,1.8,12.65,47.84626,-54.09684
2019-12-28 08:19:01+00:00,229.2598,1.8,12.65,47.84626,-54.09684
2019-12-28 08:29:01+00:00,233.9881,1.8,12.65,47.84626,-54.09684
2019-12-28 08:39:01+00:00,240.4182,1.8,12.65,47.84626,-54.09684
2019-12-28 08:49:01+00:00,241.6481,1.8,12.65,47.84626,-54.09684
2019-12-28 08:59:01+00:00,242.4498,1.77,12.65,47.84626,-54.09684
2019-12-28 09:09:01+00:00,247.5697,1.79,12.65,47.84626,-54.09684
2019-12-28 09:19:01+00:00,256.3714,1.8,12.65,47.84626,-54.09684
2019-12-28 09:29:01+00:00,259.9798,1.85,12.65,47.84626,-54.09684
2019-12-28 09:39:01+00:00,262.9297,1.89,12.65,47.84626,-54.09684
2019-12-28 09:49:01+00:00,268.7281,1.89,12.65,47.84626,-54.09684
2019-12-28 09:59:01+00:00,281.1964,1.9,12.65,47.84626,-54.09684
2019-12-28 10:09:01+00:00,284.6847,1.65,12.65,47.84626,-54.09684
2019-12-28 10:19:01+00:00,286.4947,1.3,12.65,47.84626,-54.09684
2019-12-28 10:29:01+00:00,295.7447,1.64,12.65,47.84626,-54.09684
2019-12-28 10:39:01+00:00,312.2131,1.79,12.65,47.84626,-54.09684
2019-12-28 10:49:01+00:00,318.003,1.8,12.65,47.84626,-54.09684
2019-12-28 10:59:01+00:00,323.7847,1.78,12.65,47.84626,-54.09684
2019-12-28 11:09:01+00:00,334.8847,1.8,12.65,47.84626,-54.09684
2019-12-28 11:19:01+00:00,348.31800000000015,1.8,12.65,47.84626,-54.09684
2019-12-28 11:29:01+00:00,354.963,1.8,12.65,47.84626,-54.09684
2019-12-28 11:39:01+00:00,358.2479,1.8,12.65,47.84626,-54.09684
2019-12-28 11:49:01+00:00,364.3362,1.86,12.65,47.84626,-54.09684
2019-12-28 11:59:01+00:00,369.7196,1.9,12.65,47.84626,-54.09684
2019-12-28 12:09:01+00:00,371.9863,1.9,12.65,47.84626,-54.09684
2019-12-28 12:19:01+00:00,371.5397,1.9,12.65,47.84626,-54.09684
2019-12-28 12:29:01+00:00,374.1579,1.9,12.65,47.84626,-54.09684
2019-12-28 12:39:01+00:00,379.1663,1.9,12.65,47.84626,-54.09684
2019-12-28 12:49:01+00:00,381.3445,1.9,12.65,47.84626,-54.09684
2019-12-28 12:59:01+00:00,380.8895,1.9,12.65,47.84626,-54.09684
2019-12-28 13:09:01+00:00,381.2512,1.9,12.65,47.84626,-54.09684
2019-12-28 13:19:01+00:00,382.6047,1.91,12.65,47.84626,-54.09684
2019-12-28 13:29:01+00:00,382.2946,1.9,12.65,47.84626,-54.09684
2019-12-28 13:39:01+00:00,380.9112,1.9,12.65,47.84626,-54.09684
2019-12-28 13:49:01+00:00,377.5195,1.91,12.65,47.84626,-54.09684
2019-12-28 13:59:01+00:00,375.6162,1.95,12.65,47.84626,-54.09684
2019-12-28 14:09:01+00:00,376.6795,1.95,12.65,47.84626,-54.09684
2019-12-28 14:19:01+00:00,373.8197,1.96,12.73,47.84626,-54.09684
2019-12-28 14:29:01+00:00,370.30300000000005,1.9,12.73,47.84626,-54.09684
2019-12-28 14:39:01+00:00,370.8229,1.91,12.73,47.84626,-54.09684
2019-12-28 14:49:01+00:00,372.5162,1.94,12.73,47.84626,-54.09684
2019-12-28 14:59:01+00:00,366.9297,1.92,12.73,47.84626,-54.09684
2019-12-28 15:09:01+00:00,361.5996,1.9,12.73,47.84626,-54.09684
2019-12-28 15:19:01+00:00,358.5413,1.91,12.81,47.84626,-54.09684
2019-12-28 15:29:01+00:00,353.5246,1.96,12.81,47.84626,-54.09684
2019-12-28 15:39:01+00:00,345.25300000000016,1.9,12.81,47.84626,-54.09684
2019-12-28 15:49:01+00:00,334.5946,1.9,12.81,47.84626,-54.09684
2019-12-28 15:59:01+00:00,325.953,1.9,12.81,47.84626,-54.09684
2019-12-28 16:09:01+00:00,317.1847,1.8,12.81,47.84626,-54.09684
2019-12-28 16:19:01+00:00,308.2013,1.8,12.73,47.84626,-54.09684
2019-12-28 16:29:01+00:00,296.5964,1.8,12.73,47.84626,-54.09684
2019-12-28 16:39:01+00:00,286.9714,1.79,12.73,47.84626,-54.09684
2019-12-28 16:49:01+00:00,277.7597,1.8,12.73,47.84626,-54.09684
2019-12-28 16:59:01+00:00,269.6614,1.8,12.73,47.84626,-54.09684
2019-12-28 17:09:01+00:00,262.5547,1.8,12.73,47.84626,-54.09684
2019-12-28 17:19:01+00:00,250.6931,1.8,12.73,47.84626,-54.09684
2019-12-28 17:29:01+00:00,239.6631,1.8,12.73,47.84626,-54.09684
2019-12-28 17:39:01+00:00,235.4948,1.8,12.73,47.84626,-54.09684
2019-12-28 17:49:01+00:00,226.7114,1.8,12.73,47.84626,-54.09684
2019-12-28 17:59:01+00:00,214.4482,1.8,12.73,47.84626,-54.09684
2019-12-28 18:09:01+00:00,212.9631,1.8,12.73,47.84626,-54.09684
2019-12-28 18:19:01+00:00,214.1348,1.8,12.65,47.84626,-54.09684
2019-12-28 18:29:01+00:00,204.8631,1.8,12.65,47.84626,-54.09684
2019-12-28 18:39:01+00:00,196.3048,1.8,12.65,47.84626,-54.09684
2019-12-28 18:49:01+00:00,200.6948,1.8,12.65,47.84626,-54.09684
2019-12-28 18:59:01+00:00,198.9414,1.8,12.65,47.84626,-54.09684
2019-12-28 19:09:01+00:00,190.7782,1.8,12.65,47.84626,-54.09684
2019-12-28 19:19:01+00:00,193.7748,1.79,12.65,47.84626,-54.09684
2019-12-28 19:29:01+00:00,197.8748,1.8,12.65,47.84626,-54.09684
2019-12-28 19:39:01+00:00,192.1248,1.8,12.65,47.84626,-54.09684
2019-12-28 19:49:01+00:00,192.2548,1.79,12.65,47.84626,-54.09684
2019-12-28 19:59:01+00:00,203.0365,1.8,12.65,47.84626,-54.09684
2019-12-28 20:09:01+00:00,206.5915,1.8,12.65,47.84626,-54.09684
2019-12-28 20:19:01+00:00,206.6048,1.74,12.65,47.84626,-54.09684
2019-12-28 20:29:01+00:00,215.2548,1.7,12.65,47.84626,-54.09684
2019-12-28 20:39:01+00:00,224.0914,1.75,12.65,47.84626,-54.09684
2019-12-28 20:49:01+00:00,223.3564,1.7,12.65,47.84626,-54.09684
2019-12-28 20:59:01+00:00,223.5131,1.7,12.65,47.84626,-54.09684
2019-12-28 21:09:01+00:00,230.8731,1.7,12.65,47.84626,-54.09684
2019-12-28 21:19:01+00:00,235.2731,1.8,12.65,47.84626,-54.09684
2019-12-28 21:29:01+00:00,236.9998,1.81,12.65,47.84626,-54.09684
2019-12-28 21:39:01+00:00,242.5581,1.84,12.65,47.84626,-54.09684
2019-12-28 21:49:01+00:00,249.5747,1.9,12.65,47.84626,-54.09684
2019-12-28 21:59:01+00:00,254.6631,1.99,12.65,47.84626,-54.09684
2019-12-28 22:09:01+00:00,259.1997,2.0,12.65,47.84626,-54.09684
2019-12-28 22:19:01+00:00,269.9514,2.0,12.65,47.84626,-54.09684
2019-12-28 22:29:01+00:00,278.1464,2.0,12.65,47.84626,-54.09684
2019-12-28 22:39:01+00:00,278.3514,1.9,12.65,47.84626,-54.09684
2019-12-28 22:49:01+00:00,281.7347,1.8,12.65,47.84626,-54.09684
2019-12-28 22:59:01+00:00,291.1864,1.79,12.65,47.84626,-54.09684
2019-12-28 23:09:01+00:00,295.1113,1.74,12.65,47.84626,-54.09684
2019-12-28 23:19:01+00:00,295.4698,1.7,12.65,47.84626,-54.09684
2019-12-28 23:29:01+00:00,307.1364,1.75,12.65,47.84626,-54.09684
2019-12-28 23:39:01+00:00,315.4147,1.89,12.65,47.84626,-54.09684
2019-12-28 23:49:01+00:00,316.4513,1.8,12.65,47.84626,-54.09684
2019-12-28 23:59:01+00:00,320.4014,1.8,12.65,47.84626,-54.09684
